Aeroporto :
LOGIN :

Iscrizione | Disclaimer

   EN    FR    IT 

 










Sommario :    VFR   VFR Marginale   IFR   IFR Intensivo   IFR Molto Intensivo
Visibilità : 
Base nubi : 
>= 8 km
>= 3000ft
5 / 8 km
1000 / 3000 ft
1500m / 5 km
500 / 1000 ft
800 / 1500m
200 / 500 ft
< 800m
< 200 ft
Simboli :   Temporali  Nebbia  Neve Forte  Precipitazioni Forti  Vento > 20 kt
SIGMETs :   Varie  Temporali  Ghiacco  Turbolenza  Onda orograficha  Ceneri Vulcaniche






- Altitudine del aeroporto : 699 ft
- Codice IATA : PAD


EDLP - Paderborn Lippstadt

ULTIMO METAR :
  • 230450Z 23007KT 9999 FEW008 04/03 Q1024

METARs OBSOLETI :
  • 230420Z 24008KT CAVOK 05/03 Q1024
  • 230350Z 24007KT CAVOK 05/03 Q1024
  • 230320Z 24006KT CAVOK 04/03 Q1024
  • 230250Z 24008KT 9999 BKN038 05/03 Q1023
  • 230220Z 24008KT 9999 BKN039 05/04 Q1023

TAF TAF EDLP
Valido dal 23 a 00 ore il 24 a 00 ore UTC


222300Z 2300/2324 24006KT 9999 FEW030
BECMG 2315/2317 16003KT



MetMap, La meteo Aeronautica in un colpo d'occhio ! - Copyright ORBIFLY Dicembre 2007 - Disclaimer

ORBIFLY MET'MAP TEAM :

Programmazione e sviluppo : Alexandra Zaïnal
Concezione : Baudouin d'Aumeries
Aiuto per la programmazione : Marc-Olivier Méhu
Supporto tecnico e logistico : Manuel Goepfert
Aiuto per la traduzione : Arnaldo La Scala

Contatto : metmap@orbifly.com




FONTI E CREDITI :

   NOAA